Starlink 31686

operational
NORAD ID: 59579 Int'l Des: 2024-076 Owner: SPXS Country: US Constellation: starlink
LEOCIRCULAR

About Starlink 31686

Description loading...

Live Position

Loading 3D Globe...

Upcoming Passes

Altitude History

Altitude vs Time

uPlot chart will show altitude changes over time

Two-Line Element Set

1 59579U 24076R 25354.55496613 -.00000502 00000-0 -87228-5 0 9993
2 59579 43.0023 95.5952 0001736 266.5462 93.5191 15.27579105 94409
Epoch: Dec 20, 2025 • Age: 14 hours

Current Status

Altitude 488.5 km
Velocity 7.62 km/s
Sub-Earth Point -25.12°S, 76.77°W
Launch Date Apr 23, 2024
Age 1.6 years
Type internet

Technical Details

Classification Payload
Mass 730.00 kg
Dry Mass 700.00 kg
Total Mass 730.00 kg
Length 0.30 m
Diameter 4.10 m
Span 29.00 m
Shape Box + pan
Manufacturer SPXS
Bus Type Starlink V2M
Phase Status In Orbit
Owner/State SPXS/US

Large Constellations

Loading constellations...